Time,TemperatureF,DewpointF,PressureIn,WindDirection,WindDirectionDegrees,WindSpeedMPH,WindSpeedGustMPH,Humidity,HourlyPrecipIn,Conditions,Clouds,dailyrainin,SoftwareType,DateUTC
2013-07-20 00:02:00,78.1,71.0,29.88,South,177,3.0,5.0,79,0.00,,,0.00,LWC2 V0.39 B123,2013-07-20 06:02:00,
2013-07-20 00:07:00,78.1,70.7,29.88,SW,222,2.0,9.0,78,0.00,,,0.00,LWC2 V0.39 B123,2013-07-20 06:07:00,
2013-07-20 00:12:00,78.1,70.7,29.88,South,174,2.0,6.0,78,0.00,,,0.00,LWC2 V0.39 B123,2013-07-20 06:12:00,
2013-07-20 00:17:00,78.1,70.7,29.88,WSW,246,2.0,4.0,78,0.00,,,0.00,LWC2 V0.39 B123,2013-07-20 06:17:00,
2013-07-20 00:22:00,78.0,70.6,29.88,SE,142,2.0,4.0,78,0.00,,,0.00,LWC2 V0.39 B123,2013-07-20 06:22:00,
2013-07-20 00:27:00,77.9,70.5,29.88,SW,221,3.0,6.0,78,0.00,,,0.00,LWC2 V0.39 B123,2013-07-20 06:27:00,
2013-07-20 00:32:00,77.8,70.7,29.88,SW,217,4.0,6.0,79,0.00,,,0.00,LWC2 V0.39 B123,2013-07-20 06:32:00,
2013-07-20 00:37:00,77.7,70.7,29.88,SW,229,4.0,8.0,79,0.00,,,0.00,LWC2 V0.39 B123,2013-07-20 06:37:00,
2013-07-20 00:42:00,77.6,70.6,29.88,SE,141,3.0,8.0,79,0.00,,,0.00,LWC2 V0.39 B123,2013-07-20 06:42:00,
2013-07-20 00:47:00,77.5,70.5,29.88,WSW,253,3.0,8.0,79,0.00,,,0.00,LWC2 V0.39 B123,2013-07-20 06:47:00,
2013-07-20 00:52:00,77.3,70.3,29.88,West,271,2.0,6.0,79,0.00,,,0.00,LWC2 V0.39 B123,2013-07-20 06:52:00,
2013-07-20 00:57:00,77.2,70.2,29.87,WSW,239,4.0,5.0,79,0.00,,,0.00,LWC2 V0.39 B123,2013-07-20 06:57:00,
2013-07-20 01:02:00,77.1,70.1,29.87,WNW,284,2.0,5.0,79,0.00,,,0.00,LWC2 V0.39 B123,2013-07-20 07:02:00,
2013-07-20 01:07:00,76.9,70.2,29.88,NW,309,3.0,4.0,80,0.00,,,0.00,LWC2 V0.39 B123,2013-07-20 07:07:00,
2013-07-20 01:12:00,76.7,70.0,29.88,WSW,242,2.0,2.0,80,0.00,,,0.00,LWC2 V0.39 B123,2013-07-20 07:12:00,
2013-07-20 01:17:00,76.6,70.0,29.88,WNW,291,2.0,3.0,80,0.00,,,0.00,LWC2 V0.39 B123,2013-07-20 07:17:00,
2013-07-20 01:22:00,76.5,69.9,29.88,WNW,283,3.0,4.0,80,0.00,,,0.00,LWC2 V0.39 B123,2013-07-20 07:22:00,
2013-07-20 01:27:00,76.4,69.8,29.88,West,281,1.0,3.0,80,0.00,,,0.00,LWC2 V0.39 B123,2013-07-20 07:27:00,
2013-07-20 01:32:00,76.3,70.0,29.88,ENE,65,1.0,3.0,81,0.00,,,0.00,LWC2 V0.39 B123,2013-07-20 07:32:00,
2013-07-20 01:37:00,76.1,69.8,29.88,South,190,1.0,1.0,81,0.00,,,0.00,LWC2 V0.39 B123,2013-07-20 07:37:00,
2013-07-20 01:42:00,75.9,69.6,29.88,West,280,1.0,3.0,81,0.00,,,0.00,LWC2 V0.39 B123,2013-07-20 07:42:00,
2013-07-20 01:47:00,75.8,69.9,29.88,SSW,205,0.0,5.0,82,0.00,,,0.00,LWC2 V0.39 B123,2013-07-20 07:47:00,
2013-07-20 01:52:00,75.6,69.7,29.88,NNW,345,1.0,3.0,82,0.00,,,0.00,LWC2 V0.39 B123,2013-07-20 07:52:00,
2013-07-20 01:57:00,75.5,69.6,29.87,WNW,295,0.0,2.0,82,0.00,,,0.00,LWC2 V0.39 B123,2013-07-20 07:57:00,
2013-07-20 02:02:00,75.3,69.4,29.87,WNW,301,2.0,3.0,82,0.00,,,0.00,LWC2 V0.39 B123,2013-07-20 08:02:00,
2013-07-20 02:07:00,75.2,69.3,29.87,SE,136,1.0,4.0,82,0.00,,,0.00,LWC2 V0.39 B123,2013-07-20 08:07:00,
2013-07-20 02:12:00,75.2,69.3,29.87,WNW,295,1.0,4.0,82,0.00,,,0.00,LWC2 V0.39 B123,2013-07-20 08:12:00,
2013-07-20 02:17:00,75.1,69.6,29.87,NW,317,0.0,2.0,83,0.00,,,0.00,LWC2 V0.39 B123,2013-07-20 08:17:00,
2013-07-20 02:22:00,75.0,69.5,29.87,WNW,284,1.0,4.0,83,0.00,,,0.00,LWC2 V0.39 B123,2013-07-20 08:22:00,
2013-07-20 02:27:00,74.9,69.4,29.87,WSW,240,1.0,4.0,83,0.00,,,0.00,LWC2 V0.39 B123,2013-07-20 08:27:00,
2013-07-20 02:32:00,74.8,69.3,29.87,NNW,335,1.0,2.0,83,0.00,,,0.00,LWC2 V0.39 B123,2013-07-20 08:32:00,
2013-07-20 02:37:00,74.8,69.3,29.87,NNW,338,1.0,1.0,83,0.00,,,0.00,LWC2 V0.39 B123,2013-07-20 08:37:00,
2013-07-20 02:42:00,74.6,69.4,29.87,South,183,2.0,2.0,84,0.00,,,0.00,LWC2 V0.39 B123,2013-07-20 08:42:00,
2013-07-20 02:47:00,74.6,69.4,29.87,SSE,153,1.0,3.0,84,0.00,,,0.00,LWC2 V0.39 B123,2013-07-20 08:47:00,
2013-07-20 02:52:00,74.6,69.4,29.87,West,277,0.0,2.0,84,0.00,,,0.00,LWC2 V0.39 B123,2013-07-20 08:52:00,
2013-07-20 02:57:00,74.5,69.3,29.87,NE,44,0.0,2.0,84,0.00,,,0.00,LWC2 V0.39 B123,2013-07-20 08:57:00,
2013-07-20 03:02:00,74.4,69.2,29.87,SW,221,1.0,3.0,84,0.00,,,0.00,LWC2 V0.39 B123,2013-07-20 09:02:00,
2013-07-20 03:07:00,74.4,69.2,29.87,SE,129,0.0,2.0,84,0.00,,,0.00,LWC2 V0.39 B123,2013-07-20 09:07:00,
2013-07-20 03:12:00,74.4,69.2,29.87,SE,144,0.0,4.0,84,0.00,,,0.00,LWC2 V0.39 B123,2013-07-20 09:12:00,
2013-07-20 03:17:00,74.3,69.1,29.87,ENE,77,0.0,1.0,84,0.00,,,0.00,LWC2 V0.39 B123,2013-07-20 09:17:00,
2013-07-20 03:22:00,74.3,69.1,29.87,SE,134,1.0,2.0,84,0.00,,,0.00,LWC2 V0.39 B123,2013-07-20 09:22:00,
2013-07-20 03:27:00,74.2,69.4,29.87,SW,224,0.0,3.0,85,0.00,,,0.00,LWC2 V0.39 B123,2013-07-20 09:27:00,
2013-07-20 03:32:00,74.2,69.4,29.87,SSW,192,1.0,1.0,85,0.00,,,0.00,LWC2 V0.39 B123,2013-07-20 09:32:00,
2013-07-20 03:37:00,74.1,69.3,29.87,NW,321,0.0,0.0,85,0.00,,,0.00,LWC2 V0.39 B123,2013-07-20 09:37:00,
2013-07-20 03:42:00,74.0,69.2,29.87,SW,221,0.0,2.0,85,0.00,,,0.00,LWC2 V0.39 B123,2013-07-20 09:42:00,
2013-07-20 03:47:00,73.9,69.1,29.87,NW,316,0.0,1.0,85,0.00,,,0.00,LWC2 V0.39 B123,2013-07-20 09:47:00,
2013-07-20 03:52:00,73.8,69.0,29.87,West,280,1.0,2.0,85,0.00,,,0.00,LWC2 V0.39 B123,2013-07-20 09:52:00,
2013-07-20 03:57:00,73.7,69.2,29.87,SSE,153,0.0,0.0,86,0.00,,,0.00,LWC2 V0.39 B123,2013-07-20 09:57:00,
2013-07-20 04:02:00,73.6,69.1,29.87,SSE,153,0.0,1.0,86,0.00,,,0.00,LWC2 V0.39 B123,2013-07-20 10:02:00,
2013-07-20 04:07:00,73.5,69.0,29.87,East,91,1.0,1.0,86,0.00,,,0.00,LWC2 V0.39 B123,2013-07-20 10:07:00,
2013-07-20 04:12:00,73.4,68.9,29.87,West,262,0.0,0.0,86,0.00,,,0.00,LWC2 V0.39 B123,2013-07-20 10:12:00,
2013-07-20 04:17:00,73.3,68.8,29.87,NE,35,0.0,0.0,86,0.00,,,0.00,LWC2 V0.39 B123,2013-07-20 10:17:00,
2013-07-20 04:22:00,73.2,69.1,29.87,NNE,13,0.0,0.0,87,0.00,,,0.00,LWC2 V0.39 B123,2013-07-20 10:22:00,
2013-07-20 04:27:00,73.1,69.0,29.87,North,356,0.0,0.0,87,0.00,,,0.00,LWC2 V0.39 B123,2013-07-20 10:27:00,
2013-07-20 04:32:00,73.1,69.0,29.87,NNW,336,0.0,0.0,87,0.00,,,0.00,LWC2 V0.39 B123,2013-07-20 10:32:00,
2013-07-20 04:37:00,73.1,69.0,29.86,South,190,0.0,3.0,87,0.00,,,0.00,LWC2 V0.39 B123,2013-07-20 10:37:00,
2013-07-20 04:42:00,73.1,69.0,29.87,SSW,198,0.0,1.0,87,0.00,,,0.00,LWC2 V0.39 B123,2013-07-20 10:42:00,
2013-07-20 04:47:00,73.1,69.0,29.86,NE,40,0.0,1.0,87,0.00,,,0.00,LWC2 V0.39 B123,2013-07-20 10:47:00,
2013-07-20 04:52:00,73.0,69.2,29.87,SSE,162,0.0,2.0,88,0.00,,,0.00,LWC2 V0.39 B123,2013-07-20 10:52:00,
2013-07-20 04:57:00,73.0,69.2,29.87,North,356,0.0,3.0,88,0.00,,,0.00,LWC2 V0.39 B123,2013-07-20 10:57:00,
2013-07-20 05:02:00,73.0,69.2,29.87,North,356,0.0,1.0,88,0.00,,,0.00,LWC2 V0.39 B123,2013-07-20 11:02:00,
2013-07-20 05:07:00,72.9,69.1,29.87,NNW,338,0.0,0.0,88,0.00,,,0.00,LWC2 V0.39 B123,2013-07-20 11:07:00,
2013-07-20 05:12:00,73.0,69.2,29.87,South,175,0.0,0.0,88,0.00,,,0.00,LWC2 V0.39 B123,2013-07-20 11:12:00,
2013-07-20 05:17:00,73.0,69.2,29.87,WSW,240,0.0,1.0,88,0.00,,,0.00,LWC2 V0.39 B123,2013-07-20 11:17:00,
2013-07-20 05:22:00,73.1,69.3,29.87,SW,223,0.0,1.0,88,0.00,,,0.00,LWC2 V0.39 B123,2013-07-20 11:22:00,
2013-07-20 05:27:00,73.1,69.3,29.87,NNW,335,0.0,0.0,88,0.00,,,0.00,LWC2 V0.39 B123,2013-07-20 11:27:00,
2013-07-20 05:32:00,73.0,69.2,29.86,NNW,329,0.0,0.0,88,0.00,,,0.00,LWC2 V0.39 B123,2013-07-20 11:32:00,
2013-07-20 05:37:00,73.0,69.2,29.87,NW,326,1.0,1.0,88,0.00,,,0.00,LWC2 V0.39 B123,2013-07-20 11:37:00,
2013-07-20 05:42:00,72.9,69.1,29.87,ESE,111,0.0,1.0,88,0.00,,,0.00,LWC2 V0.39 B123,2013-07-20 11:42:00,
2013-07-20 05:47:00,73.0,69.6,29.87,NW,309,0.0,0.0,89,0.00,,,0.00,LWC2 V0.39 B123,2013-07-20 11:47:00,
2013-07-20 05:52:00,73.0,69.6,29.86,NW,312,0.0,0.0,89,0.00,,,0.00,LWC2 V0.39 B123,2013-07-20 11:52:00,
2013-07-20 05:57:00,73.0,69.6,29.86,East,97,0.0,0.0,89,0.00,,,0.00,LWC2 V0.39 B123,2013-07-20 11:57:00,
2013-07-20 06:02:00,73.1,69.7,29.87,SE,140,0.0,0.0,89,0.00,,,0.00,LWC2 V0.39 B123,2013-07-20 12:02:00,
2013-07-20 06:07:00,73.3,69.5,29.87,South,177,0.0,2.0,88,0.00,,,0.00,LWC2 V0.39 B123,2013-07-20 12:07:00,
2013-07-20 06:12:00,73.6,69.8,29.87,ESE,122,0.0,1.0,88,0.00,,,0.00,LWC2 V0.39 B123,2013-07-20 12:12:00,
2013-07-20 06:17:00,74.0,70.2,29.87,ESE,122,2.0,2.0,88,0.00,,,0.00,LWC2 V0.39 B123,2013-07-20 12:17:00,
2013-07-20 06:22:00,74.5,70.4,29.87,East,94,0.0,3.0,87,0.00,,,0.00,LWC2 V0.39 B123,2013-07-20 12:22:00,
2013-07-20 06:27:00,74.8,70.3,29.87,SW,228,4.0,5.0,86,0.00,,,0.00,LWC2 V0.39 B123,2013-07-20 12:27:00,
2013-07-20 06:32:00,75.0,70.5,29.87,SW,226,0.0,2.0,86,0.00,,,0.00,LWC2 V0.39 B123,2013-07-20 12:32:00,
2013-07-20 06:37:00,75.4,70.6,29.87,West,281,1.0,2.0,85,0.00,,,0.00,LWC2 V0.39 B123,2013-07-20 12:37:00,
2013-07-20 06:42:00,75.6,70.8,29.86,North,355,0.0,2.0,85,0.00,,,0.00,LWC2 V0.39 B123,2013-07-20 12:42:00,
2013-07-20 06:47:00,75.8,70.6,29.86,SE,141,0.0,1.0,84,0.00,,,0.00,LWC2 V0.39 B123,2013-07-20 12:47:00,
2013-07-20 06:52:00,76.1,70.9,29.86,South,187,0.0,2.0,84,0.00,,,0.00,LWC2 V0.39 B123,2013-07-20 12:52:00,
2013-07-20 06:57:00,76.4,71.2,29.87,South,183,1.0,4.0,84,0.00,,,0.00,LWC2 V0.39 B123,2013-07-20 12:57:00,
2013-07-20 07:02:00,76.8,71.2,29.87,SW,221,2.0,6.0,83,0.00,,,0.00,LWC2 V0.39 B123,2013-07-20 13:02:00,
2013-07-20 07:07:00,77.1,71.5,29.87,SSW,204,0.0,3.0,83,0.00,,,0.00,LWC2 V0.39 B123,2013-07-20 13:07:00,
2013-07-20 07:12:00,77.6,71.7,29.87,West,276,1.0,4.0,82,0.00,,,0.00,LWC2 V0.39 B123,2013-07-20 13:12:00,
2013-07-20 07:17:00,78.0,72.0,29.87,SSE,159,0.0,3.0,82,0.00,,,0.00,LWC2 V0.39 B123,2013-07-20 13:17:00,
2013-07-20 07:22:00,78.7,72.7,29.87,NNE,23,0.0,0.0,82,0.00,,,0.00,LWC2 V0.39 B123,2013-07-20 13:22:00,
2013-07-20 07:27:00,79.3,72.6,29.86,NW,314,0.0,2.0,80,0.00,,,0.00,LWC2 V0.39 B123,2013-07-20 13:27:00,
2013-07-20 07:32:00,79.9,72.4,29.86,SW,231,1.0,1.0,78,0.00,,,0.00,LWC2 V0.39 B123,2013-07-20 13:32:00,
2013-07-20 07:37:00,80.4,72.5,29.86,NNE,16,0.0,1.0,77,0.00,,,0.00,LWC2 V0.39 B123,2013-07-20 13:37:00,
2013-07-20 07:42:00,81.4,73.9,29.86,South,190,2.0,2.0,78,0.00,,,0.00,LWC2 V0.39 B123,2013-07-20 13:42:00,
2013-07-20 07:47:00,81.9,73.2,29.86,NNW,346,1.0,1.0,75,0.00,,,0.00,LWC2 V0.39 B123,2013-07-20 13:47:00,
2013-07-20 07:52:00,82.0,73.3,29.86,SE,127,2.0,2.0,75,0.00,,,0.00,LWC2 V0.39 B123,2013-07-20 13:52:00,
2013-07-20 07:57:00,82.4,73.3,29.86,SW,226,1.0,3.0,74,0.00,,,0.00,LWC2 V0.39 B123,2013-07-20 13:57:00,
2013-07-20 08:02:00,83.1,73.5,29.86,SSE,160,2.0,4.0,73,0.00,,,0.00,LWC2 V0.39 B123,2013-07-20 14:02:00,
2013-07-20 08:04:00,83.2,73.2,29.86,NE,36,2.0,2.0,72,0.00,,,0.00,LWC2 V0.39 B123,2013-07-20 14:04:00,
2013-07-20 08:09:00,83.7,74.1,29.86,NW,316,1.0,2.0,73,0.00,,,0.00,LWC2 V0.39 B123,2013-07-20 14:09:00,
2013-07-20 08:14:00,83.9,73.5,29.86,WSW,238,4.0,6.0,71,0.00,,,0.00,LWC2 V0.39 B123,2013-07-20 14:14:00,
2013-07-20 08:19:00,84.3,73.8,29.86,NW,323,2.0,2.0,71,0.00,,,0.00,LWC2 V0.39 B123,2013-07-20 14:19:00,
2013-07-20 08:24:00,84.4,73.5,29.86,WNW,295,1.0,4.0,70,0.00,,,0.00,LWC2 V0.39 B123,2013-07-20 14:24:00,
2013-07-20 08:29:00,84.9,73.6,29.86,SSE,156,1.0,4.0,69,0.00,,,0.00,LWC2 V0.39 B123,2013-07-20 14:29:00,
2013-07-20 08:34:00,85.6,74.2,29.87,NNW,337,1.0,1.0,69,0.00,,,0.00,LWC2 V0.39 B123,2013-07-20 14:34:00,
2013-07-20 08:39:00,85.8,74.0,29.86,WSW,255,2.0,3.0,68,0.00,,,0.00,LWC2 V0.39 B123,2013-07-20 14:39:00,
2013-07-20 08:44:00,86.3,74.5,29.86,West,281,1.0,3.0,68,0.00,,,0.00,LWC2 V0.39 B123,2013-07-20 14:44:00,
2013-07-20 08:49:00,86.6,73.9,29.86,NNE,20,0.0,1.0,66,0.00,,,0.00,LWC2 V0.39 B123,2013-07-20 14:49:00,
2013-07-20 08:54:00,86.7,73.9,29.86,WNW,297,1.0,2.0,66,0.00,,,0.00,LWC2 V0.39 B123,2013-07-20 14:54:00,
2013-07-20 09:00:00,86.9,74.1,29.86,NE,43,0.0,2.0,66,0.00,,,0.00,LWC2 V0.39 B123,2013-07-20 15:00:00,
2013-07-20 09:05:00,87.2,74.0,29.86,NE,49,0.0,1.0,65,0.00,,,0.00,LWC2 V0.39 B123,2013-07-20 15:05:00,
2013-07-20 09:10:00,87.7,74.4,29.86,NNW,340,0.0,4.0,65,0.00,,,0.00,LWC2 V0.39 B123,2013-07-20 15:10:00,
2013-07-20 09:15:00,88.4,74.6,29.86,NE,56,0.0,3.0,64,0.00,,,0.00,LWC2 V0.39 B123,2013-07-20 15:15:00,
2013-07-20 09:20:00,88.3,74.1,29.86,SE,133,0.0,2.0,63,0.00,,,0.00,LWC2 V0.39 B123,2013-07-20 15:20:00,
2013-07-20 09:25:00,88.9,75.1,29.86,NE,55,1.0,2.0,64,0.00,,,0.00,LWC2 V0.39 B123,2013-07-20 15:25:00,
2013-07-20 09:30:00,89.5,74.2,29.86,SE,143,1.0,4.0,61,0.00,,,0.00,LWC2 V0.39 B123,2013-07-20 15:30:00,
2013-07-20 09:35:00,90.0,74.7,29.86,NNW,333,1.0,2.0,61,0.00,,,0.00,LWC2 V0.39 B123,2013-07-20 15:35:00,
2013-07-20 09:40:00,90.2,74.4,29.86,South,186,2.0,5.0,60,0.00,,,0.00,LWC2 V0.39 B123,2013-07-20 15:40:00,
2013-07-20 09:45:00,90.6,73.8,29.86,WSW,248,1.0,1.0,58,0.00,,,0.00,LWC2 V0.39 B123,2013-07-20 15:45:00,
2013-07-20 09:50:00,90.2,73.9,29.86,SE,127,1.0,3.0,59,0.00,,,0.00,LWC2 V0.39 B123,2013-07-20 15:50:00,
2013-07-20 09:55:00,90.4,74.1,29.86,SW,229,4.0,4.0,59,0.00,,,0.00,LWC2 V0.39 B123,2013-07-20 15:55:00,
2013-07-20 10:00:00,90.9,74.5,29.86,SSE,165,0.0,1.0,59,0.00,,,0.00,LWC2 V0.39 B123,2013-07-20 16:00:00,
2013-07-20 10:05:00,91.6,74.7,29.86,WNW,288,2.0,2.0,58,0.00,,,0.00,LWC2 V0.39 B123,2013-07-20 16:05:00,
2013-07-20 10:10:00,91.8,75.4,29.86,SSW,208,0.0,2.0,59,0.00,,,0.00,LWC2 V0.39 B123,2013-07-20 16:10:00,
2013-07-20 10:15:00,92.1,75.7,29.86,NE,41,2.0,3.0,59,0.00,,,0.00,LWC2 V0.39 B123,2013-07-20 16:15:00,
2013-07-20 10:20:00,91.3,74.9,29.86,NNE,26,1.0,4.0,59,0.00,,,0.00,LWC2 V0.39 B123,2013-07-20 16:20:00,
2013-07-20 10:25:00,91.0,74.6,29.86,North,7,2.0,3.0,59,0.00,,,0.00,LWC2 V0.39 B123,2013-07-20 16:25:00,
2013-07-20 10:30:00,91.0,74.6,29.86,NE,49,2.0,2.0,59,0.00,,,0.00,LWC2 V0.39 B123,2013-07-20 16:30:00,
2013-07-20 10:35:00,91.5,75.6,29.86,North,5,0.0,2.0,60,0.00,,,0.00,LWC2 V0.39 B123,2013-07-20 16:35:00,
2013-07-20 10:40:00,92.7,75.7,29.86,SE,129,1.0,2.0,58,0.00,,,0.00,LWC2 V0.39 B123,2013-07-20 16:40:00,
2013-07-20 10:45:00,92.8,75.3,29.86,ESE,110,0.0,3.0,57,0.00,,,0.00,LWC2 V0.39 B123,2013-07-20 16:45:00,
2013-07-20 10:50:00,93.0,74.4,29.86,SSW,205,2.0,3.0,55,0.00,,,0.00,LWC2 V0.39 B123,2013-07-20 16:50:00,
2013-07-20 10:56:00,93.3,74.7,29.86,NW,319,1.0,2.0,55,0.00,,,0.00,LWC2 V0.39 B123,2013-07-20 16:56:00,
2013-07-20 11:01:00,93.9,74.1,29.86,WSW,241,1.0,2.0,53,0.00,,,0.00,LWC2 V0.39 B123,2013-07-20 17:01:00,
2013-07-20 11:06:00,94.0,73.6,29.86,NE,44,1.0,3.0,52,0.00,,,0.00,LWC2 V0.39 B123,2013-07-20 17:06:00,
2013-07-20 11:11:00,93.5,73.8,29.86,WSW,238,0.0,3.0,53,0.00,,,0.00,LWC2 V0.39 B123,2013-07-20 17:11:00,
2013-07-20 11:16:00,94.1,73.7,29.86,SW,226,0.0,4.0,52,0.00,,,0.00,LWC2 V0.39 B123,2013-07-20 17:16:00,
2013-07-20 11:21:00,95.0,74.0,29.86,North,3,1.0,2.0,51,0.00,,,0.00,LWC2 V0.39 B123,2013-07-20 17:21:00,
2013-07-20 11:26:00,95.7,74.6,29.85,WSW,239,3.0,6.0,51,0.00,,,0.00,LWC2 V0.39 B123,2013-07-20 17:26:00,
2013-07-20 11:31:00,95.0,73.4,29.85,ESE,115,2.0,2.0,50,0.00,,,0.00,LWC2 V0.39 B123,2013-07-20 17:31:00,
2013-07-20 11:36:00,95.0,73.4,29.85,SSW,194,1.0,4.0,50,0.00,,,0.00,LWC2 V0.39 B123,2013-07-20 17:36:00,
2013-07-20 11:41:00,95.5,72.0,29.85,WSW,240,0.0,4.0,47,0.00,,,0.00,LWC2 V0.39 B123,2013-07-20 17:41:00,
2013-07-20 11:46:00,96.0,71.8,29.85,NW,321,1.0,6.0,46,0.00,,,0.00,LWC2 V0.39 B123,2013-07-20 17:46:00,
2013-07-20 11:51:00,95.9,73.0,29.85,WSW,253,1.0,3.0,48,0.00,,,0.00,LWC2 V0.39 B123,2013-07-20 17:51:00,
2013-07-20 11:56:00,95.5,72.6,29.84,South,184,1.0,3.0,48,0.00,,,0.00,LWC2 V0.39 B123,2013-07-20 17:56:00,
2013-07-20 12:01:00,94.2,72.1,29.84,ESE,115,0.0,1.0,49,0.00,,,0.00,LWC2 V0.39 B123,2013-07-20 18:01:00,
2013-07-20 12:06:00,93.3,74.1,29.84,SE,126,1.0,2.0,54,0.00,,,0.00,LWC2 V0.39 B123,2013-07-20 18:06:00,
2013-07-20 12:11:00,92.5,73.9,29.84,East,96,0.0,2.0,55,0.00,,,0.00,LWC2 V0.39 B123,2013-07-20 18:11:00,
2013-07-20 12:16:00,92.5,75.0,29.84,ESE,121,2.0,3.0,57,0.00,,,0.00,LWC2 V0.39 B123,2013-07-20 18:16:00,
2013-07-20 12:21:00,94.1,74.3,29.83,ENE,58,1.0,3.0,53,0.00,,,0.00,LWC2 V0.39 B123,2013-07-20 18:21:00,
2013-07-20 12:26:00,95.0,74.6,29.84,NE,46,2.0,5.0,52,0.00,,,0.00,LWC2 V0.39 B123,2013-07-20 18:26:00,
2013-07-20 12:31:00,94.2,74.4,29.83,SE,135,4.0,7.0,53,0.00,,,0.00,LWC2 V0.39 B123,2013-07-20 18:31:00,
2013-07-20 12:36:00,91.6,72.6,29.83,ESE,108,4.0,5.0,54,0.00,,,0.00,LWC2 V0.39 B123,2013-07-20 18:36:00,
2013-07-20 12:41:00,89.7,72.4,29.83,ESE,109,2.0,4.0,57,0.00,,,0.00,LWC2 V0.39 B123,2013-07-20 18:41:00,
2013-07-20 12:46:00,90.5,73.7,29.83,ESE,104,1.0,5.0,58,0.00,,,0.00,LWC2 V0.39 B123,2013-07-20 18:46:00,
2013-07-20 12:51:00,91.1,73.7,29.83,East,97,0.0,2.0,57,0.00,,,0.00,LWC2 V0.39 B123,2013-07-20 18:51:00,
2013-07-20 12:57:00,91.3,72.8,29.83,ESE,115,1.0,3.0,55,0.00,,,0.00,LWC2 V0.39 B123,2013-07-20 18:57:00,
2013-07-20 13:02:00,91.3,72.8,29.82,SE,145,2.0,4.0,55,0.00,,,0.00,LWC2 V0.39 B123,2013-07-20 19:02:00,
2013-07-20 13:07:00,90.4,73.6,29.82,SE,145,1.0,3.0,58,0.00,,,0.00,LWC2 V0.39 B123,2013-07-20 19:07:00,
2013-07-20 13:12:00,90.3,74.0,29.82,SSE,149,2.0,3.0,59,0.00,,,0.00,LWC2 V0.39 B123,2013-07-20 19:12:00,
2013-07-20 13:17:00,90.6,73.8,29.81,ESE,103,0.0,3.0,58,0.00,,,0.00,LWC2 V0.39 B123,2013-07-20 19:17:00,
2013-07-20 13:22:00,91.1,72.6,29.81,SE,143,4.0,5.0,55,0.00,,,0.00,LWC2 V0.39 B123,2013-07-20 19:22:00,
2013-07-20 13:27:00,91.1,74.2,29.81,ESE,110,1.0,4.0,58,0.00,,,0.00,LWC2 V0.39 B123,2013-07-20 19:27:00,
2013-07-20 13:32:00,90.8,75.0,29.81,ESE,104,0.0,2.0,60,0.00,,,0.00,LWC2 V0.39 B123,2013-07-20 19:32:00,
2013-07-20 13:37:00,86.5,70.4,29.82,SE,133,12.0,23.0,59,1.15,,,0.08,LWC2 V0.39 B123,2013-07-20 19:37:00,
2013-07-20 13:42:00,81.0,69.4,29.83,South,184,6.0,12.0,68,0.25,,,0.11,LWC2 V0.39 B123,2013-07-20 19:42:00,
2013-07-20 13:47:00,78.3,69.3,29.82,SE,125,5.0,6.0,74,0.46,,,0.16,LWC2 V0.39 B123,2013-07-20 19:47:00,
2013-07-20 13:52:00,77.7,71.8,29.83,SE,130,3.0,4.0,82,0.10,,,0.16,LWC2 V0.39 B123,2013-07-20 19:52:00,
2013-07-20 13:59:00,76.6,72.1,29.81,ESE,115,7.0,7.0,86,2.64,,,0.35,LWC2 V0.39 B123,2013-07-20 19:59:00,
2013-07-20 14:04:00,76.6,72.4,29.81,ENE,73,2.0,6.0,87,0.49,,,0.44,LWC2 V0.39 B123,2013-07-20 20:04:00,
2013-07-20 14:09:00,77.3,73.5,29.80,ESE,104,0.0,3.0,88,0.21,,,0.46,LWC2 V0.39 B123,2013-07-20 20:09:00,
2013-07-20 14:14:00,78.2,75.3,29.80,ESE,104,0.0,1.0,91,0.08,,,0.46,LWC2 V0.39 B123,2013-07-20 20:14:00,
2013-07-20 14:19:00,79.8,77.3,29.79,ESE,108,0.0,1.0,92,0.05,,,0.46,LWC2 V0.39 B123,2013-07-20 20:19:00,
2013-07-20 14:24:00,82.1,78.9,29.79,East,100,1.0,1.0,90,0.00,,,0.46,LWC2 V0.39 B123,2013-07-20 20:24:00,
2013-07-20 14:29:00,84.0,79.0,29.79,East,99,1.0,2.0,85,0.00,,,0.46,LWC2 V0.39 B123,2013-07-20 20:29:00,
2013-07-20 14:34:00,85.0,78.9,29.79,East,99,0.0,0.0,82,0.00,,,0.46,LWC2 V0.39 B123,2013-07-20 20:34:00,
2013-07-20 14:39:00,85.6,79.1,29.78,ESE,108,0.0,0.0,81,0.00,,,0.46,LWC2 V0.39 B123,2013-07-20 20:39:00,
2013-07-20 14:44:00,86.2,80.0,29.78,ESE,108,0.0,1.0,82,0.00,,,0.46,LWC2 V0.39 B123,2013-07-20 20:44:00,
2013-07-20 14:50:00,87.6,81.0,29.78,ESE,108,0.0,0.0,81,0.00,,,0.46,LWC2 V0.39 B123,2013-07-20 20:50:00,
2013-07-20 14:55:00,88.9,81.9,29.77,ESE,110,2.0,3.0,80,0.00,,,0.46,LWC2 V0.39 B123,2013-07-20 20:55:00,
2013-07-20 15:00:00,89.7,81.1,29.77,ESE,104,1.0,2.0,76,0.00,,,0.46,LWC2 V0.39 B123,2013-07-20 21:00:00,
2013-07-20 15:06:00,89.7,79.4,29.77,SE,126,1.0,2.0,72,0.00,,,0.46,LWC2 V0.39 B123,2013-07-20 21:06:00,
2013-07-20 15:11:00,90.0,78.9,29.76,ESE,109,2.0,3.0,70,0.00,,,0.46,LWC2 V0.39 B123,2013-07-20 21:11:00,
2013-07-20 15:16:00,89.7,78.1,29.76,ESE,105,1.0,3.0,69,0.00,,,0.46,LWC2 V0.39 B123,2013-07-20 21:16:00,
2013-07-20 15:21:00,89.3,80.3,29.76,ESE,108,1.0,1.0,75,0.00,,,0.46,LWC2 V0.39 B123,2013-07-20 21:21:00,
2013-07-20 15:26:00,89.6,78.9,29.76,ESE,105,1.0,2.0,71,0.00,,,0.46,LWC2 V0.39 B123,2013-07-20 21:26:00,
2013-07-20 15:31:00,90.1,76.7,29.76,ESE,104,0.0,1.0,65,0.00,,,0.46,LWC2 V0.39 B123,2013-07-20 21:31:00,
2013-07-20 15:36:00,91.1,77.7,29.75,South,188,3.0,3.0,65,0.00,,,0.46,LWC2 V0.39 B123,2013-07-20 21:36:00,
2013-07-20 15:41:00,92.5,75.5,29.75,South,174,2.0,3.0,58,0.00,,,0.46,LWC2 V0.39 B123,2013-07-20 21:41:00,
2013-07-20 15:46:00,92.8,74.2,29.75,South,176,1.0,4.0,55,0.00,,,0.46,LWC2 V0.39 B123,2013-07-20 21:46:00,
2013-07-20 15:51:00,93.2,73.5,29.75,South,186,3.0,4.0,53,0.00,,,0.46,LWC2 V0.39 B123,2013-07-20 21:51:00,
2013-07-20 15:56:00,93.3,73.6,29.75,South,172,5.0,5.0,53,0.00,,,0.46,LWC2 V0.39 B123,2013-07-20 21:56:00,
2013-07-20 16:01:00,93.4,72.5,29.75,South,170,3.0,6.0,51,0.00,,,0.46,LWC2 V0.39 B123,2013-07-20 22:01:00,
2013-07-20 16:07:00,94.6,74.8,29.75,WSW,238,3.0,3.0,53,0.00,,,0.46,LWC2 V0.39 B123,2013-07-20 22:07:00,
2013-07-20 16:12:00,95.0,73.4,29.75,SE,143,3.0,8.0,50,0.00,,,0.46,LWC2 V0.39 B123,2013-07-20 22:12:00,
2013-07-20 16:18:00,95.2,74.2,29.75,South,190,2.0,2.0,51,0.00,,,0.46,LWC2 V0.39 B123,2013-07-20 22:18:00,
2013-07-20 16:24:00,95.8,73.5,29.75,SSE,159,3.0,7.0,49,0.00,,,0.46,LWC2 V0.39 B123,2013-07-20 22:24:00,
2013-07-20 16:29:00,95.7,72.8,29.75,ENE,67,1.0,7.0,48,0.00,,,0.46,LWC2 V0.39 B123,2013-07-20 22:29:00,
2013-07-20 16:34:00,95.4,72.5,29.75,SW,229,3.0,9.0,48,0.00,,,0.46,LWC2 V0.39 B123,2013-07-20 22:34:00,
2013-07-20 16:39:00,94.4,74.0,29.75,SSW,195,2.0,2.0,52,0.00,,,0.46,LWC2 V0.39 B123,2013-07-20 22:39:00,
2013-07-20 16:44:00,94.5,73.5,29.75,SSW,212,3.0,6.0,51,0.00,,,0.46,LWC2 V0.39 B123,2013-07-20 22:44:00,
2013-07-20 16:49:00,95.2,74.2,29.75,WSW,242,3.0,5.0,51,0.00,,,0.46,LWC2 V0.39 B123,2013-07-20 22:49:00,
2013-07-20 16:54:00,95.7,72.2,29.75,South,188,2.0,7.0,47,0.00,,,0.46,LWC2 V0.39 B123,2013-07-20 22:54:00,
2013-07-20 17:01:00,95.4,73.2,29.75,NNW,335,3.0,5.0,49,0.00,,,0.46,LWC2 V0.39 B123,2013-07-20 23:01:00,
2013-07-20 17:06:00,95.1,72.9,29.75,South,184,2.0,5.0,49,0.00,,,0.46,LWC2 V0.39 B123,2013-07-20 23:06:00,
2013-07-20 17:11:00,95.0,72.2,29.75,WSW,242,4.0,6.0,48,0.00,,,0.46,LWC2 V0.39 B123,2013-07-20 23:11:00,
2013-07-20 17:16:00,95.1,72.9,29.75,West,264,1.0,6.0,49,0.00,,,0.46,LWC2 V0.39 B123,2013-07-20 23:16:00,
2013-07-20 17:21:00,95.1,72.3,29.75,South,188,1.0,6.0,48,0.00,,,0.46,LWC2 V0.39 B123,2013-07-20 23:21:00,
2013-07-20 17:27:00,95.0,72.8,29.75,WSW,245,2.0,4.0,49,0.00,,,0.46,LWC2 V0.39 B123,2013-07-20 23:27:00,
2013-07-20 17:32:00,94.9,72.1,29.75,NNW,327,2.0,5.0,48,0.00,,,0.46,LWC2 V0.39 B123,2013-07-20 23:32:00,
2013-07-20 17:37:00,94.8,71.4,29.75,WSW,238,6.0,7.0,47,0.00,,,0.46,LWC2 V0.39 B123,2013-07-20 23:37:00,
2013-07-20 17:42:00,94.6,71.8,29.75,West,259,1.0,7.0,48,0.00,,,0.46,LWC2 V0.39 B123,2013-07-20 23:42:00,
2013-07-20 17:47:00,94.4,71.6,29.75,NW,322,1.0,3.0,48,0.00,,,0.46,LWC2 V0.39 B123,2013-07-20 23:47:00,
2013-07-20 17:52:00,94.2,70.8,29.76,SSW,212,5.0,7.0,47,0.00,,,0.46,LWC2 V0.39 B123,2013-07-20 23:52:00,
2013-07-20 17:57:00,94.1,71.4,29.75,SSE,162,3.0,4.0,48,0.00,,,0.46,LWC2 V0.39 B123,2013-07-20 23:57:00,
2013-07-20 18:02:00,93.6,70.3,29.76,SW,217,3.0,7.0,47,0.00,,,0.46,LWC2 V0.39 B123,2013-07-21 00:02:00,
2013-07-20 18:07:00,93.0,70.4,29.76,SSW,193,1.0,4.0,48,0.00,,,0.46,LWC2 V0.39 B123,2013-07-21 00:07:00,
2013-07-20 18:12:00,92.5,70.5,29.76,West,263,1.0,6.0,49,0.00,,,0.46,LWC2 V0.39 B123,2013-07-21 00:12:00,
2013-07-20 18:17:00,92.1,71.3,29.75,SSW,212,2.0,4.0,51,0.00,,,0.46,LWC2 V0.39 B123,2013-07-21 00:17:00,
2013-07-20 18:22:00,91.6,70.9,29.76,NW,316,1.0,2.0,51,0.00,,,0.46,LWC2 V0.39 B123,2013-07-21 00:22:00,
2013-07-20 18:27:00,91.3,70.6,29.76,SSW,201,1.0,5.0,51,0.00,,,0.46,LWC2 V0.39 B123,2013-07-21 00:27:00,
2013-07-20 18:32:00,90.9,70.8,29.76,SSW,200,1.0,2.0,52,0.00,,,0.46,LWC2 V0.39 B123,2013-07-21 00:32:00,
2013-07-20 18:37:00,90.7,71.2,29.76,SSW,193,2.0,2.0,53,0.00,,,0.46,LWC2 V0.39 B123,2013-07-21 00:37:00,
2013-07-20 18:42:00,90.4,71.4,29.76,SSE,167,0.0,2.0,54,0.00,,,0.46,LWC2 V0.39 B123,2013-07-21 00:42:00,
2013-07-20 18:47:00,90.0,71.6,29.76,SSW,200,1.0,2.0,55,0.00,,,0.46,LWC2 V0.39 B123,2013-07-21 00:47:00,
2013-07-20 18:53:00,89.5,71.7,29.76,SSE,165,0.0,0.0,56,0.00,,,0.46,LWC2 V0.39 B123,2013-07-21 00:53:00,
2013-07-20 18:58:00,89.3,71.5,29.76,South,172,2.0,2.0,56,0.00,,,0.46,LWC2 V0.39 B123,2013-07-21 00:58:00,
2013-07-20 19:03:00,89.0,72.3,29.76,SE,145,1.0,2.0,58,0.00,,,0.46,LWC2 V0.39 B123,2013-07-21 01:03:00,
2013-07-20 19:10:00,88.6,72.4,29.76,SSW,198,2.0,2.0,59,0.00,,,0.46,LWC2 V0.39 B123,2013-07-21 01:10:00,
2013-07-20 19:15:00,88.3,72.6,29.76,ESE,114,1.0,2.0,60,0.00,,,0.46,LWC2 V0.39 B123,2013-07-21 01:15:00,
2013-07-20 19:21:00,88.1,72.9,29.76,SW,226,1.0,4.0,61,0.00,,,0.46,LWC2 V0.39 B123,2013-07-21 01:21:00,
2013-07-20 19:26:00,87.9,72.7,29.76,South,170,0.0,3.0,61,0.00,,,0.46,LWC2 V0.39 B123,2013-07-21 01:26:00,
2013-07-20 19:32:00,87.6,72.9,29.76,SSE,159,1.0,4.0,62,0.00,,,0.46,LWC2 V0.39 B123,2013-07-21 01:32:00,
2013-07-20 19:38:00,87.4,72.7,29.76,SE,145,1.0,3.0,62,0.00,,,0.46,LWC2 V0.39 B123,2013-07-21 01:38:00,
2013-07-20 19:43:00,87.1,72.9,29.76,SE,132,1.0,3.0,63,0.00,,,0.46,LWC2 V0.39 B123,2013-07-21 01:43:00,
2013-07-20 19:48:00,86.9,72.8,29.76,SE,146,1.0,2.0,63,0.00,,,0.46,LWC2 V0.39 B123,2013-07-21 01:48:00,
2013-07-20 19:53:00,86.6,72.5,29.77,SSE,160,2.0,4.0,63,0.00,,,0.46,LWC2 V0.39 B123,2013-07-21 01:53:00,
2013-07-20 19:58:00,86.5,72.8,29.77,SSE,151,1.0,2.0,64,0.00,,,0.46,LWC2 V0.39 B123,2013-07-21 01:58:00,
2013-07-20 20:03:00,86.3,72.7,29.77,ESE,117,1.0,2.0,64,0.00,,,0.46,LWC2 V0.39 B123,2013-07-21 02:03:00,
2013-07-20 20:08:00,86.1,72.9,29.77,ESE,120,1.0,3.0,65,0.00,,,0.46,LWC2 V0.39 B123,2013-07-21 02:08:00,
2013-07-20 20:13:00,86.0,72.8,29.77,SSW,193,1.0,3.0,65,0.00,,,0.46,LWC2 V0.39 B123,2013-07-21 02:13:00,
2013-07-20 20:18:00,85.9,72.7,29.78,SW,226,1.0,3.0,65,0.00,,,0.46,LWC2 V0.39 B123,2013-07-21 02:18:00,
2013-07-20 20:23:00,85.7,72.5,29.78,SE,146,0.0,3.0,65,0.00,,,0.46,LWC2 V0.39 B123,2013-07-21 02:23:00,
2013-07-20 20:28:00,85.5,72.8,29.77,SE,132,2.0,3.0,66,0.00,,,0.46,LWC2 V0.39 B123,2013-07-21 02:28:00,
2013-07-20 20:33:00,85.4,72.3,29.78,SSE,149,1.0,2.0,65,0.00,,,0.46,LWC2 V0.39 B123,2013-07-21 02:33:00,
2013-07-20 20:38:00,85.4,72.7,29.78,SE,141,2.0,3.0,66,0.00,,,0.46,LWC2 V0.39 B123,2013-07-21 02:38:00,
2013-07-20 20:43:00,85.4,72.7,29.78,South,180,1.0,2.0,66,0.00,,,0.46,LWC2 V0.39 B123,2013-07-21 02:43:00,
2013-07-20 20:48:00,85.3,72.6,29.79,SSE,167,2.0,4.0,66,0.00,,,0.46,LWC2 V0.39 B123,2013-07-21 02:48:00,
2013-07-20 20:53:00,85.3,72.6,29.79,ESE,108,1.0,4.0,66,0.00,,,0.46,LWC2 V0.39 B123,2013-07-21 02:53:00,
2013-07-20 20:58:00,85.3,72.6,29.79,SE,127,2.0,3.0,66,0.00,,,0.46,LWC2 V0.39 B123,2013-07-21 02:58:00,
2013-07-20 21:03:00,85.4,72.7,29.80,SSE,166,2.0,3.0,66,0.00,,,0.46,LWC2 V0.39 B123,2013-07-21 03:03:00,
2013-07-20 21:09:00,85.3,72.6,29.80,SE,145,1.0,4.0,66,0.00,,,0.46,LWC2 V0.39 B123,2013-07-21 03:09:00,
2013-07-20 21:14:00,85.2,72.5,29.80,South,191,4.0,7.0,66,0.00,,,0.46,LWC2 V0.39 B123,2013-07-21 03:14:00,
2013-07-20 21:21:00,85.3,72.6,29.80,SSW,193,4.0,4.0,66,0.00,,,0.46,LWC2 V0.39 B123,2013-07-21 03:21:00,
2013-07-20 21:26:00,85.1,72.9,29.80,South,172,1.0,4.0,67,0.00,,,0.46,LWC2 V0.39 B123,2013-07-21 03:26:00,
2013-07-20 21:31:00,84.9,72.7,29.80,SE,139,3.0,5.0,67,0.00,,,0.46,LWC2 V0.39 B123,2013-07-21 03:31:00,
2013-07-20 21:36:00,84.6,72.4,29.80,ESE,115,1.0,5.0,67,0.00,,,0.46,LWC2 V0.39 B123,2013-07-21 03:36:00,
2013-07-20 21:41:00,84.4,72.7,29.80,East,99,2.0,7.0,68,0.00,,,0.46,LWC2 V0.39 B123,2013-07-21 03:41:00,
2013-07-20 21:46:00,84.3,72.6,29.80,SSE,156,1.0,5.0,68,0.00,,,0.46,LWC2 V0.39 B123,2013-07-21 03:46:00,
2013-07-20 21:51:00,84.2,72.9,29.80,South,188,3.0,6.0,69,0.00,,,0.46,LWC2 V0.39 B123,2013-07-21 03:51:00,
2013-07-20 21:56:00,84.1,72.8,29.79,South,186,1.0,5.0,69,0.00,,,0.46,LWC2 V0.39 B123,2013-07-21 03:56:00,
2013-07-20 22:01:00,83.9,73.0,29.79,WSW,242,4.0,8.0,70,0.00,,,0.46,LWC2 V0.39 B123,2013-07-21 04:01:00,
2013-07-20 22:03:00,83.9,73.0,29.79,SSE,163,2.0,6.0,70,0.00,,,0.46,LWC2 V0.39 B123,2013-07-21 04:03:00,
2013-07-20 22:04:00,83.9,73.0,29.79,SW,222,2.0,3.0,70,0.00,,,0.46,LWC2 V0.39 B123,2013-07-21 04:04:00,
2013-07-20 22:05:00,83.9,73.0,29.79,South,169,3.0,4.0,70,0.00,,,0.46,LWC2 V0.39 B123,2013-07-21 04:05:00,
2013-07-20 22:10:00,83.9,73.0,29.79,SSE,160,4.0,5.0,70,0.00,,,0.46,LWC2 V0.39 B123,2013-07-21 04:10:00,
2013-07-20 22:15:00,83.8,72.9,29.79,SW,225,5.0,7.0,70,0.00,,,0.46,LWC2 V0.39 B123,2013-07-21 04:15:00,
2013-07-20 22:20:00,83.9,73.0,29.79,SSW,208,1.0,7.0,70,0.00,,,0.46,LWC2 V0.39 B123,2013-07-21 04:20:00,
2013-07-20 22:25:00,83.8,72.9,29.79,South,184,2.0,7.0,70,0.00,,,0.46,LWC2 V0.39 B123,2013-07-21 04:25:00,
2013-07-20 22:30:00,83.7,72.8,29.79,SSE,165,3.0,5.0,70,0.00,,,0.46,LWC2 V0.39 B123,2013-07-21 04:30:00,
2013-07-20 22:35:00,83.5,73.1,29.79,SE,142,1.0,4.0,71,0.00,,,0.46,LWC2 V0.39 B123,2013-07-21 04:35:00,
2013-07-20 22:40:00,83.5,73.1,29.79,SE,145,3.0,4.0,71,0.00,,,0.46,LWC2 V0.39 B123,2013-07-21 04:40:00,
2013-07-20 22:45:00,83.4,72.6,29.79,SSW,198,2.0,5.0,70,0.00,,,0.46,LWC2 V0.39 B123,2013-07-21 04:45:00,
2013-07-20 22:50:00,83.4,72.6,29.80,ESE,118,2.0,6.0,70,0.00,,,0.46,LWC2 V0.39 B123,2013-07-21 04:50:00,
2013-07-20 22:55:00,83.3,72.5,29.80,SSE,148,1.0,3.0,70,0.00,,,0.46,LWC2 V0.39 B123,2013-07-21 04:55:00,
2013-07-20 23:00:00,83.2,72.8,29.80,ESE,108,1.0,3.0,71,0.00,,,0.00,LWC2 V0.39 B123,2013-07-21 05:00:00,
2013-07-20 23:05:00,82.7,73.1,29.81,SE,137,3.0,6.0,73,0.00,,,0.00,LWC2 V0.39 B123,2013-07-21 05:05:00,
2013-07-20 23:10:00,82.2,72.7,29.81,ESE,122,1.0,3.0,73,0.00,,,0.00,LWC2 V0.39 B123,2013-07-21 05:10:00,
2013-07-20 23:15:00,81.8,72.7,29.81,SE,130,2.0,3.0,74,0.00,,,0.00,LWC2 V0.39 B123,2013-07-21 05:15:00,
2013-07-20 23:20:00,81.7,72.6,29.82,ESE,108,2.0,4.0,74,0.00,,,0.00,LWC2 V0.39 B123,2013-07-21 05:20:00,
2013-07-20 23:25:00,81.6,72.5,29.82,ENE,68,1.0,4.0,74,0.00,,,0.00,LWC2 V0.39 B123,2013-07-21 05:25:00,
2013-07-20 23:30:00,81.6,72.5,29.83,North,354,3.0,4.0,74,0.00,,,0.00,LWC2 V0.39 B123,2013-07-21 05:30:00,
2013-07-20 23:35:00,80.6,71.9,29.84,ENE,60,4.0,6.0,75,0.00,,,0.00,LWC2 V0.39 B123,2013-07-21 05:35:00,
2013-07-20 23:40:00,79.2,71.3,29.84,NW,316,3.0,7.0,77,0.00,,,0.00,LWC2 V0.39 B123,2013-07-21 05:40:00,
2013-07-20 23:45:00,78.1,71.0,29.83,East,97,4.0,7.0,79,0.00,,,0.00,LWC2 V0.39 B123,2013-07-21 05:45:00,
2013-07-20 23:50:00,77.6,71.3,29.84,East,84,4.0,7.0,81,0.00,,,0.00,LWC2 V0.39 B123,2013-07-21 05:50:00,
2013-07-20 23:55:00,77.3,71.0,29.84,ENE,72,3.0,3.0,81,0.00,,,0.00,LWC2 V0.39 B123,2013-07-21 05:55:00,